METEOSAT-11 (MSG-4)

Last updated on Tue Oct 14 2025 00:02:22 GMT+0000 (Coordinated Universal Time)

1 40732U 15034A 25286.56078510 .00000056 00000+0 00000+0 0 9993 2 40732 2.5814 72.1388 0000581 210.1209 311.8497 1.00283660 4740
UTC large
Height (km)
Speed (km/s)
/
Latitude / Longitude
Inclination (degrees)
Orbital Period (minutes)
Azimuth
Elevation
Range (km)
Doppler Factor

Next 0 passes for location: London (51.5072 / 0.1276)

Sorry there are no passes over London.